Retour au catalogue

SL-14 DEB

ActifPO
NORAD 45280·DEBRIS·🇷🇺 Russia

Lancé Aug 15, 1991 depuis Plesetsk Cosmodrome

Loading…

Prochains Passages (prochaines 24 heures)

TLE

FraisSource: Space-Track

Époque: Sep 13, 2026, 23:23 UTC

1 45280U 91056S   26256.97487690  .00000866  00000-0  20565-2 0  9991
2 45280  82.5844  80.4582 0015119 103.7208 256.5601 13.22068225316845

Suivez SL-14 DEB en temps réel avec AllMySat

Download on the App Store